Regional Weather Roundup
Issued by NWS

Home | Current Version | Previous Version | Graphics & Text | Print | Product List | Glossary On
Versions: 1 2 3 4 5 6 7 8 9 10 11 12 13 14 15 16 17 18 19 20 21 22 23 24 25 26 27 28 29 30 31 32 33 34 35 36 37 38 39 40 41 42 43 44 45 46 47 48 49 50
000
ASUS45 KTFX 301010
RWRMT
MONTANA REGIONAL WEATHER ROUNDUP
NATIONAL WEATHER SERVICE GREAT FALLS MT
400 AM MDT MON MAY 30 2016

NOTE: "FAIR" INDICATES FEW OR NO CLOUDS BELOW 12000 FEET WITH NO
SIGNIFICANT WEATHER AND/OR OBSTRUCTIONS TO VISIBILITY.

MTZ001>007-043-301100-
WEST OF THE DIVIDE

CITY           SKY/WX    TMP DP  RH WIND       PRES   REMARKS
KALISPELL      MOCLDY    42  41  96 N5        30.04S
MISSOULA       CLOUDY    50  46  86 E3        30.07R
BUTTE          CLOUDY    40  35  83 S3        30.09R
MULLAN PASS    MOCLDY    38  33  82 NW5       30.11R
ANACONDA         N/A     46  37  71 S3        30.09R
DEER LODGE       N/A     46  43  87 CALM      30.09R
EUREKA           N/A     46  43  87 N5        30.09R
HAMILTON         N/A     48  43  81 CALM      30.08R
LIBBY            N/A     41  37  87 SE3       30.09R
$$

MTZ008-052>055-301100-
SOUTHWEST MONTANA

CITY           SKY/WX    TMP DP  RH WIND       PRES   REMARKS
BOZEMAN        CLOUDY    50  43  77 W8        30.04R
DILLON         CLOUDY    45  37  73 SE6       30.06S
W YELLOWSTONE  CLOUDY    43  37  81 N5        30.10S
ENNIS          CLOUDY    46  39  76 CALM      30.11R
$$

MTZ009-010-012-014-046-048-049-054-301100-
EAST SLOPES AND CENTRAL MONTANA

CITY           SKY/WX    TMP DP  RH WIND       PRES   REMARKS
CUT BANK       MOCLDY    43  41  93 NW18G25   30.02R
GREAT FALLS    CLOUDY    48  41  76 SW13      29.97S
MALMSTROM AFB  PTCLDY    49  42  78 SW13      29.97S
HELENA         CLOUDY    51  41  68 CALM      30.02S
CHOTEAU          N/A     48  41  76 N9        30.00R
$$

MTZ011-013-016-021-045-047-050-051-301100-
NORTH CENTRAL MONTANA

CITY           SKY/WX    TMP DP  RH WIND       PRES   REMARKS
HAVRE          CLOUDY    51  46  83 W9        29.93R
LEWISTOWN      CLOUDY    51  46  83 SE8       29.97F
N BAR RANCH    CLOUDY    50  45  81 NW13      30.02S
CHINOOK          N/A     54  46  76 W5        29.92R
$$

MTZ017>020-022>027-061-062-301100-
NORTHEAST MONTANA

CITY           SKY/WX    TMP DP  RH WIND       PRES   REMARKS
GLASGOW        CLOUDY    54  46  74 VRB7      29.90R
JORDAN           N/A     59  46  62 VRB3      29.92R
SIDNEY         MOCLDY    50  43  76 NW6       29.89F
WOLF POINT     CLOUDY    49  44  83 CALM      29.91R
POPLAR           N/A     46  45  93 N3        29.90R
$$

MTZ028>42-056>058-301100-
SOUTHCENTRAL AND SOUTHEAST MONTANA

CITY           SKY/WX    TMP DP  RH WIND       PRES   REMARKS
BAKER          MOCLDY    53  47  79 CALM      29.92R
BILLINGS       LGT RAIN  53  47  79 N9        29.99R
LIVINGSTON     CLOUDY    53  39  59 W6        30.02R
MILES CITY     LGT RAIN  57  48  72 NW15      29.92R
FORSYTH          N/A     55  52  88 N12       29.89R
$$

REGIONAL REPORTS...DAKOTAS

CITY           SKY/WX    TMP DP  RH WIND       PRES   REMARKS
WILLISTON      PTCLDY    46  41  82 CALM      29.90S
MINOT          CLEAR     52  47  83 S3        29.89S
DICKINSON      CLEAR     48  44  86 S8        29.90S
BEACH            N/A     48  46  93 S5        29.94S
CROSBY           N/A     48  48 100 S9        29.91S
WATFORD CITY     N/A     43  43 100 CALM      29.91R
BISMARCK       CLEAR     52  51  97 E5        29.92S
GRAND FORKS    PTCLDY    48  44  86 S6        29.90F
FARGO          CLEAR     55  47  74 S5        29.93S
BUFFALO SD       N/A     53  48  83 SE8       29.85F
RAPID CITY     CLOUDY    51  49  92 NW5       29.91F
$$

REGIONAL REPORTS...WYOMING/IDAHO/WASHINGTON

CITY           SKY/WX    TMP DP  RH WIND       PRES   REMARKS
GILLETTE       PTCLDY    54  41  61 S12       29.89F
SHERIDAN       CLOUDY    53  46  77 N9        29.90R
BUFFALO WY     CLOUDY    62  36  37 W6        29.93S
CODY           CLOUDY    59  36  41 W8        29.98F
YELLOWSTONE LA   N/A     38  36  92 CALM      30.17F
IDAHO FALLS    CLOUDY    52  42  69 SW10      30.05S
SALMON         CLEAR     48  37  66 SE3       30.06S
BOISE          CLEAR     56  37  49 NW9       30.07R
SPOKANE        CLEAR     44  34  67 W6        30.13R
$$

REGIONAL REPORTS...ALBERTA

CITY           SKY/WX    TMP DP  RH WIND       PRES   REMARKS
EDMONTON       MOCLDY    46  39  76 W8        30.04R
CALGARY        LGT RAIN  43  39  87 NW20      30.04S
LETHBRIDGE     CLOUDY    45  41  87 NW23G32   30.01R
MEDICINE HAT   CLOUDY    48  45  87 W10       29.90S
WATERTON GATE    N/A     39  37  93 NE10        N/A
ONEFOUR          N/A     46  43  87 NW18        N/A
$$

REGIONAL REPORTS...SASKATCHEWAN

CITY           SKY/WX    TMP DP  RH WIND       PRES   REMARKS
SWIFT CURRENT  CLEAR     50  43  76 SW9       29.85S
SASKATOON      PTCLDY    46  46 100 NE10      29.93R
CYPRESS HILLS    N/A     46  36  66 NW5         N/A
VAL MARIE        N/A     43  39  87 E2          N/A
ROCKGLEN         N/A     50  39  66 S5          N/A
$$



USA.gov is the U.S. government's official web portal to all federal, state and local government web resources and services.